Terminal Aerodrome Forecast
Issued by NWS Newport/Morehead City, NC

Home | Current Version | Previous Version | Graphics & Text | Print | Product List | Glossary On
Versions: 1 2 3 4 5 6 7 8 9 10 11 12 13 14
000
FTUS42 KMHX 201700 CCA
TAFEWN
TAF COR
KEWN 201756Z 2018/2118 04005KT P6SM -RA SCT015 OVC060
      TEMPO 2018/2021 BKN025
     FM210000 03004KT P6SM BKN050=

USA.gov is the U.S. government's official web portal to all federal, state and local government web resources and services.